This is the latest recevied weather packets stored in our database for station/object F4IKI-10. If no packets are shown the sender has not sent any weather packets the latest 10 day(s).
| Time | Temp. | Humidity | Pressure | Rain* | Wind** | Luminosity | Snow |
|---|---|---|---|---|---|---|---|
| 1777493505 | 21.67° C | 65% | 1014.6 hPa | - | - | - | - |
| 1777492605 | 22.22° C | 65% | 1014.3 hPa | - | - | - | - |
| 1777491705 | 22.22° C | 65% | 1014.1 hPa | - | - | - | - |
| 1777490805 | 22.22° C | 64% | 1013.8 hPa | - | - | - | - |
| 1777489905 | 22.22° C | 64% | 1013.5 hPa | - | - | - | - |
| 1777489005 | 22.22° C | 64% | 1013.5 hPa | - | - | - | - |
| 1777488104 | 22.22° C | 64% | 1013.4 hPa | - | - | - | - |
| 1777487204 | 22.22° C | 64% | 1013.2 hPa | - | - | - | - |
| 1777486304 | 22.22° C | 63% | 1012.7 hPa | - | - | - | - |
| 1777485404 | 22.78° C | 63% | 1012.6 hPa | - | - | - | - |
| 1777484504 | 22.78° C | 62% | 1012.5 hPa | - | - | - | - |
| 1777483604 | 22.78° C | 62% | 1012.5 hPa | - | - | - | - |
| 1777482704 | 22.22° C | 64% | 1012.5 hPa | - | - | - | - |
| 1777481804 | 21.67° C | 65% | 1012.6 hPa | - | - | - | - |
| 1777480904 | 21.67° C | 65% | 1012.5 hPa | - | - | - | - |
| 1777480003 | 22.22° C | 64% | 1012.5 hPa | - | - | - | - |
| 1777479103 | 22.22° C | 66% | 1012.6 hPa | - | - | - | - |
| 1777478198 | 22.22° C | 66% | 1012.6 hPa | - | - | - | - |
| 1777477298 | 21.67° C | 66% | 1012.5 hPa | - | - | - | - |
| 1777476398 | 20.56° C | 70% | 1012.5 hPa | - | - | - | - |
| 1777475498 | 20.56° C | 70% | 1012.7 hPa | - | - | - | - |
| 1777474598 | 20.56° C | 70% | 1012.8 hPa | - | - | - | - |
| 1777473698 | 20.56° C | 70% | 1012.7 hPa | - | - | - | - |
| 1777472797 | 20.56° C | 71% | 1012.7 hPa | - | - | - | - |
| 1777471897 | 20.56° C | 71% | 1012.7 hPa | - | - | - | - |
* Rain since midnight (hover to see other rain measurements)
** Current wind speed in m/s (hover to see current wind gust speed)